Change the Weather History Date:

Wednesday, September 26, 2012

  Actual Average Record
Temperature  
Mean Temperature 56 °F -  
Max Temperature 69 °F 69 °F 89 °F (1998)
Min Temperature 44 °F 46 °F 33 °F (2006)
Degree Days  
Heating Degree Days 8    
Growing Degree Days 6 (Base 50)    
Moisture  
Dew Point 41 °F    
Average Humidity 63    
Maximum Humidity 93    
Minimum Humidity 28    
Precipitation  
Precipitation 0.00 in - - ()
Sea Level Pressure  
Sea Level Pressure 30.05 in    
Wind  
Wind Speed 4 mph (NNE)    
Max Wind Speed 12 mph    
Max Gust Speed 16 mph    
Visibility 8 miles    
Events      
Averages and records for this station are not official NWS values.
T = Trace of Precipitation, MM = Missing Value Source: NWS Daily Summary

Daily Weather History Graph

Daily Weather History Graph

Search for Another Location

Airport or City:

Trip Planner

Search our weather history database for the weather conditions in past years. The results will help you decide how hot, cold, wet, or windy it might be!

Date:

Astronomy

Sep. 26, 2012 Rise Set
Actual Time 6:56 AM CDT 6:53 PM CDT
Civil Twilight 6:28 AM CDT 7:21 PM CDT
Nautical Twilight 5:56 AM CDT 7:54 PM CDT
Astronomical Twilight 5:23 AM CDT 8:27 PM CDT
Moon 4:56 PM CDT (9/26) 3:19 AM CDT (9/26)
Length of Visible Light 12h 52m
Length of Day
11h 57m
Waxing Gibbous, 88% of the Moon is Illuminated
Sep 26
Waxing Gibbous
Sep 29
Full
Oct 8
Last Quarter
Oct 15
New
Oct 21
First Quarter

Hourly Weather History & Observations

Time (CDT) Temp. Windchill Dew Point Humidity Pressure Visibility Wind Dir Wind Speed Gust Speed Precip Events Conditions
12:15 AM 51.8 °F - 46.4 °F 82% 29.93 in 10.0 mi NNW 6.9 mph - N/A   Clear
12:35 AM 51.8 °F - 46.4 °F 82% 29.94 in 10.0 mi Calm Calm - N/A   Clear
12:55 AM 51.8 °F - 46.4 °F 82% 29.95 in 10.0 mi Calm Calm - N/A   Clear
1:15 AM 50.0 °F - 44.6 °F 82% 29.95 in 10.0 mi Calm Calm - N/A   Clear
1:35 AM 48.2 °F - 44.6 °F 87% 29.94 in 10.0 mi Calm Calm - N/A   Clear
1:55 AM 46.4 °F 45.2 °F 42.8 °F 87% 29.94 in 10.0 mi NNW 3.5 mph - N/A   Clear
2:15 AM 46.4 °F - 42.8 °F 87% 29.94 in 10.0 mi Calm Calm - N/A   Clear
2:35 AM 48.2 °F - 42.8 °F 82% 29.93 in 10.0 mi NNW 3.5 mph - N/A   Clear
2:55 AM 48.2 °F - 44.6 °F 87% 29.93 in 10.0 mi Calm Calm - N/A   Clear
3:15 AM 46.4 °F 44.3 °F 42.8 °F 87% 29.93 in 10.0 mi NNW 4.6 mph - N/A   Clear
3:35 AM 46.4 °F 43.5 °F 42.8 °F 87% 29.95 in 10.0 mi NNW 5.8 mph - N/A   Clear
3:55 AM 48.2 °F - 42.8 °F 82% 29.95 in 10.0 mi Calm Calm - N/A   Clear
4:15 AM 46.4 °F - 42.8 °F 87% 29.95 in 10.0 mi Calm Calm - N/A   Clear
4:35 AM 46.4 °F - 42.8 °F 87% 29.96 in 10.0 mi Calm Calm - N/A   Clear
4:55 AM 44.6 °F 42.2 °F 41.0 °F 87% 29.96 in 10.0 mi NNW 4.6 mph - N/A   Clear
5:15 AM 44.6 °F 43.1 °F 41.0 °F 87% 29.96 in 10.0 mi NW 3.5 mph - N/A   Clear
5:35 AM 44.6 °F - 42.8 °F 93% 29.98 in 10.0 mi Calm Calm - N/A   Clear
5:55 AM 46.4 °F 43.5 °F 42.8 °F 87% 29.98 in 10.0 mi NNW 5.8 mph - N/A   Clear
6:15 AM 44.6 °F 43.1 °F 41.0 °F 87% 29.99 in 10.0 mi NNW 3.5 mph - N/A   Clear
6:35 AM 44.6 °F 42.2 °F 41.0 °F 87% 29.99 in 10.0 mi North 4.6 mph - N/A   Clear
6:55 AM 44.6 °F 42.2 °F 41.0 °F 87% 29.99 in 10.0 mi NNW 4.6 mph - N/A   Clear
7:35 AM 44.6 °F 42.2 °F 41.0 °F 87% 30.01 in 10.0 mi North 4.6 mph - N/A   Clear
7:55 AM 44.6 °F - 41.0 °F 87% 30.02 in 10.0 mi Calm Calm - N/A   Clear
8:15 AM 48.2 °F - 42.8 °F 82% 30.03 in 10.0 mi Calm Calm - N/A   Clear
8:35 AM 50.0 °F - 44.6 °F 82% 30.04 in 10.0 mi NE 4.6 mph - N/A   Clear
8:55 AM 51.8 °F - 44.6 °F 76% 30.04 in 10.0 mi ENE 5.8 mph - N/A   Clear
9:15 AM 53.6 °F - 46.4 °F 77% 30.05 in 10.0 mi ENE 5.8 mph - N/A   Clear
9:35 AM 55.4 °F - 46.4 °F 72% 30.06 in 10.0 mi NE 4.6 mph - N/A   Clear
9:55 AM 57.2 °F - 48.2 °F 72% 30.06 in 3.0 mi NE 5.8 mph - N/A   Haze
10:15 AM 57.2 °F - 48.2 °F 72% 30.07 in 7.0 mi NE 9.2 mph - N/A   Clear
10:35 AM 60.8 °F - 48.2 °F 63% 30.08 in 10.0 mi ENE 10.4 mph - N/A   Clear
11:35 AM 64.4 °F - 44.6 °F 49% 30.08 in 10.0 mi ENE 8.1 mph - N/A   Clear
11:55 AM 64.4 °F - 42.8 °F 45% 30.08 in 1.8 mi NE 11.5 mph 16.1 mph N/A   Haze
12:15 PM 66.2 °F - 42.8 °F 43% 30.08 in 2.5 mi ENE 9.2 mph - N/A   Haze
12:35 PM 66.2 °F - 39.2 °F 37% 30.07 in 1.2 mi NE 6.9 mph - N/A   Haze
12:55 PM 68.0 °F - 39.2 °F 35% 30.07 in 1.8 mi NE 5.8 mph - N/A   Haze
1:15 PM 68.0 °F - 37.4 °F 33% 30.07 in 1.0 mi NE 8.1 mph - N/A   Haze
1:35 PM 69.8 °F - 39.2 °F 33% 30.06 in 1.2 mi NNE 9.2 mph - N/A   Haze
1:55 PM 69.8 °F - 39.2 °F 33% 30.06 in 2.0 mi NNE 11.5 mph - N/A   Haze
2:15 PM 69.8 °F - 39.2 °F 33% 30.06 in 2.5 mi ENE 9.2 mph - N/A   Haze
2:35 PM 69.8 °F - 39.2 °F 33% 30.07 in 5.0 mi NNE 6.9 mph - N/A   Haze
2:55 PM 69.8 °F - 39.2 °F 33% 30.07 in 5.0 mi NNE 5.8 mph - N/A   Haze
3:15 PM 69.8 °F - 37.4 °F 31% 30.07 in 7.0 mi ENE 4.6 mph - N/A   Clear
3:35 PM 69.8 °F - 37.4 °F 31% 30.07 in 7.0 mi ENE 8.1 mph - N/A   Clear
3:55 PM 69.8 °F - 35.6 °F 28% 30.07 in 5.0 mi Calm Calm - N/A   Haze
4:15 PM 69.8 °F - 35.6 °F 28% 30.08 in 7.0 mi NE 4.6 mph - N/A   Clear
4:35 PM 69.8 °F - 37.4 °F 31% 30.07 in 5.0 mi NNE 5.8 mph - N/A   Haze
5:15 PM 69.8 °F - 35.6 °F 28% 30.08 in 10.0 mi North 4.6 mph - N/A   Clear
5:35 PM 68.0 °F - 33.8 °F 28% 30.08 in 10.0 mi NNE 4.6 mph - N/A   Clear
5:55 PM 68.0 °F - 35.6 °F 30% 30.08 in 10.0 mi NNE 3.5 mph - N/A   Clear
6:15 PM 64.4 °F - 37.4 °F 37% 30.09 in 10.0 mi NNE 4.6 mph - N/A   Clear
6:35 PM 62.6 °F - 37.4 °F 39% 30.10 in 10.0 mi NE 3.5 mph - N/A   Clear
6:55 PM 62.6 °F - 37.4 °F 39% 30.11 in 10.0 mi Calm Calm - N/A   Clear
7:15 PM 60.8 °F - 37.4 °F 42% 30.12 in 10.0 mi Calm Calm - N/A   Clear
7:35 PM 59.0 °F - 39.2 °F 48% 30.12 in 10.0 mi NE 3.5 mph - N/A   Clear
7:55 PM 57.2 °F - 39.2 °F 51% 30.13 in 10.0 mi NE 3.5 mph - N/A   Clear
8:35 PM 51.8 °F - 41.0 °F 67% 30.15 in 10.0 mi Calm Calm - N/A   Clear
8:55 PM 53.6 °F - 42.8 °F 67% 30.15 in 10.0 mi NE 3.5 mph - N/A   Clear
9:15 PM 50.0 °F - 41.0 °F 71% 30.16 in 10.0 mi Calm Calm - N/A   Clear
9:35 PM 53.6 °F - 41.0 °F 62% 30.16 in 10.0 mi ENE 4.6 mph - N/A   Clear
9:55 PM 53.6 °F - 41.0 °F 62% 30.16 in 10.0 mi NE 3.5 mph - N/A   Clear
10:15 PM 50.0 °F - 41.0 °F 71% 30.17 in 10.0 mi Calm Calm - N/A   Clear
10:35 PM 50.0 °F - 41.0 °F 71% 30.17 in 10.0 mi Calm Calm - N/A   Clear
10:55 PM 53.6 °F - 41.0 °F 62% 30.17 in 10.0 mi ENE 3.5 mph - N/A   Clear
11:15 PM 53.6 °F - 41.0 °F 62% 30.17 in 10.0 mi ENE 3.5 mph - N/A   Clear
11:35 PM 51.8 °F - 39.2 °F 62% 30.17 in 10.0 mi ENE 3.5 mph - N/A   Clear
11:55 PM 48.2 °F - 39.2 °F 71% 30.17 in 10.0 mi Calm Calm - N/A   Clear